Regional Weather Roundup
Issued by NWS Pendleton, OR

Home | Current Version | Previous Version | Text Only | Print | Product List | Glossary On
Versions: 1 2 3 4 5 6 7 8 9 10 11 12 13 14 15 16 17 18 19 20 21 22 23 24 25 26 27 28 29 30 31 32 33 34 35 36 37 38 39 40 41 42 43 44 45 46 47 48 49 50
491
ASUS46 KPDT 171204
RWRPDT
PENDLETON REGIONAL WEATHER ROUNDUP
NATIONAL WEATHER SERVICE PENDLETON OREGON
500 AM PDT THU AUG 17 2017

NOTE: FAIR INDICATES FEW OR NO CLOUDS BELOW 12,000 FEET WITH NO
SIGNIFICANT WEATHER AND/OR OBSTRUCTIONS TO VISIBILITY.

# INDICATES UNOFFICIAL STATION AND DATA

WAZ520-171310-
EAST SLOPES OF WASHINGTON CASCADES

CITY            SKY/WX      TMP DP  RH  WIND    PRES   REMARKS
#BULLFROG       N/A         62  52  70  SW3     N/A
#CLE ELUM HS    N/A         61  52  72  W3      30.01S
#CLE ELUM LAKE  N/A         57  50  77  N1      30.16R
#EASTON DOT     N/A         58  51  77  N2      N/A
#ELK HTS DOT    N/A         62  61  97  W2      N/A
#GLENWOOD       N/A         45  43  93  CALM    30.01R
#NELSON 3SW     N/A         58  48  69  CALM    30.17R
#NILE           N/A         57  49  75  CALM    29.28S
#TROUT LAKE 1NE N/A         61  52  72  W8      30.00R
$$

WAZ521-171310-
SIMCOE HIGHLANDS

CITY            SKY/WX      TMP DP  RH  WIND    PRES   REMARKS
#BICKLETON HS   N/A         57  49  75  N3      29.97R
#CENTERVILLE 1SWN/A         61  51  70  W14     29.93R
#GOLDENDALE 1NE N/A         59  44  57  SW2     N/A
#GOLDENDALE 4W  N/A         61  30  31  W10     30.09R
#GOODNOE HILLS  N/A         65  54  68  W14     N/A
#PITT 4SE       N/A         58  52  80  W12     30.01R
$$

WAZ026-171310-
KITTITAS VALLEY

CITY            SKY/WX      TMP DP  RH  WIND    PRES   REMARKS
ELLENSBURG AP   CLEAR       64  51  63  NW18    30.03R
6HR MIN TEMP:   64; 6HR MAX TEMP:   69;

#ELLENSBURG CWU N/A         63  52  67  N7      29.90R
#ELLENSBURG 3NE N/A         62  52  70  N9      28.10S
#ELLENSBURG 1E  N/A         63  51  65  N2      29.98S
#KITTITAS 3S    N/A         55  49  80  CALM    29.94R
#MANASTASH RDG  N/A         58  58  100 NW8     N/A
#ROCKY CYN DOT  N/A         62  51  67  NW14    N/A
#RYEGRASS DOT   N/A         56  50  80  W17     N/A
$$

WAZ027-171310-
YAKIMA VALLEY

CITY            SKY/WX      TMP DP  RH  WIND    PRES   REMARKS
SUNNYSIDE AP    N/A         52  49  89  CALM    30.00R
6HR MIN TEMP:   51; 6HR MAX TEMP:   69;

YAKIMA AIRPORT  CLEAR       62  50  65  CALM    30.02R
6HR MIN TEMP:   61; 6HR MAX TEMP:   74;

YAKIMA-VAGABOND CLEAR       63  48  58  N3      30.01S
6HR MIN TEMP:   61; 6HR MAX TEMP:   71;

#DONALD 2NE     N/A         67  29  24  W10     28.84S
#GRANDVIEW      N/A         59  50  72  CALM    29.98R
#MABTON         N/A         62  50  65  S3      29.99R
#MOXEE 2E       N/A         60  N/A N/A S2      29.95R
#NACHES 2SW     N/A         64  51  63  W8      30.02S
#OUTLOOK DOT    N/A         66  49  54  CALM    29.96R
#PARKER DOT     N/A         67  50  54  S9      29.99R
#TERRACE HTS    N/A         64  49  58  E2      29.92R
#TOPPENISH      N/A         65  51  60  CALM    29.89R
#I82 S UMTANUM RN/A         64  46  52  NW12    N/A
#UNION GAP DOT  N/A         63  52  67  NE3     30.03
#W YAKIMA       N/A         63  50  62  W1      29.95R
#WHITE SWAN 5E  N/A         53  49  86  CALM    29.98R
#ZILLAH DOT     N/A         68  48  49  W5      N/A
$$

WAZ028-171310-
LOWER COLUMBIA BASIN...WASHINGTON

CITY            SKY/WX      TMP DP  RH  WIND    PRES   REMARKS
PASCO           CLEAR       58  53  83  W3      29.99R
6HR MIN TEMP:   58; 6HR MAX TEMP:   77;

PROSSER AWOS    N/A         59  52  78  CALM    30.03R
RICHLAND AWOS   CLEAR       61  53  75  CALM    29.99R
#BENTON CITY    N/A         61  50  67  CALM    29.87R
#CONNELL 5N     N/A         55  48  77  CALM    29.95R
#CONNELL 5NW    N/A         55  50  83  CALM    29.90R
#ELTOPIA 6NW    N/A         63  53  70  CALM    28.96R
#KAHLOTUS       N/A         63  49  60  CALM    29.93R
#KENNEWICK 3S   N/A         64  54  70  S1      29.95R
#PATERSON       N/A         65  58  78  CALM    29.95S
#PROSSER DOT    N/A         58  53  83  CALM    29.99S
#SAGEMOOR 2W    N/A         64  52  65  CALM    29.82R
#TOUCHET 2S     N/A         69  55  61  S16     29.93R
#WEST PASCO     N/A         59  53  80  CALM    29.98R
$$

WAZ029-171310-
FOOTHILLS OF THE BLUES...WASHINGTON

CITY            SKY/WX      TMP DP  RH  WIND    PRES   REMARKS
WALLA WALLA AP  CLEAR       69  52  55  S12     30.02S
6HR MIN TEMP:   68; 6HR MAX TEMP:   75;

#CLYDE 6NW      N/A         59  50  72  CALM    29.94R
#DAYTON SCHOOL  N/A         67  47  49  S5      30.03R
#DELANEY DOT    N/A         66  50  56  SE2     30.00S
#LOWDEN 2SE     N/A         67  55  65  SW3     29.96S
#PLEASANT VIEW 1N/A         59  49  69  S6      29.96S
#PRESCOTT       N/A         58  49  72  CALM    29.97R
#WHITMAN COLLEGEN/A         68  53  59  S6      30.01R
#WAITSBURG 5S   N/A         64  51  63  S6      30.05R
#WAITSBURG 6SSE N/A         66  50  56  S3      29.99R
#WAITSBURG 8N   N/A         61  N/A N/A S9      29.95R
#WALLA WALLA 5E N/A         64  52  65  S15     N/A
#WHITMAN MISSIONN/A         63  54  72  S1      29.99R
$$

WAZ030-171310-
BLUE MOUNTAINS...WASHINGTON

CITY            SKY/WX      TMP DP  RH  WIND    PRES   REMARKS
#DIXIE 5SE      N/A         62  50  65  S8      30.01R
$$

ORZ009-041-WAZ024-171310-
COLUMBIA RIVER GORGE

CITY            SKY/WX      TMP DP  RH  WIND    PRES   REMARKS
HOOD RIVER AP   CLEAR       63  55  75  NW14    30.08R
THE DALLES AP   CLEAR       68  58  70  NW13    30.02R
6HR MIN TEMP:   68; 6HR MAX TEMP:   76;

#CELILO DOT     N/A         69  56  63  SW6     N/A
#LYLE           N/A         68  59  73  W14     30.03S
#MARYHILL       N/A         66  54  65  N12     29.88S
#MURDOCK        N/A         68  58  70  NW9     29.98R
#RUFUS DOT      N/A         71  N/A N/A W23     N/A
#SMITHVILLE     N/A         67  58  73  N14G25  30.02S

$$

ORZ510-171310-
NORTH CENTRAL OREGON

CITY            SKY/WX      TMP DP  RH  WIND    PRES   REMARKS
#ANTELOPE       N/A         50  44  80  NE1     29.85F
#CHENOWITH 1W   N/A         61  56  84  W32     N/A
#COW CYN RST AREN/A         60  46  60  SW1     N/A
#DUFUR          N/A         48  43  83  W1      29.97R
#DUFUR 9E       N/A         58  54  87  NW7     30.01F
#GRASS VALLEY 1SN/A         56  50  80  W2      30.08S
#KENT DOT       N/A         59  44  57  W12     N/A
#MAUPIN SCHOOL  N/A         60  51  72  CALM    30.09R
#SHANIKO 5WSW   N/A         58  42  55  N8      N/A
#SHANIKO 4NW    N/A         59  42  53  W9      30.13S
#TYGH VALLEY 2NEN/A         55  48  77  CALM    29.98S
#WAPANITIA AIRPON/A         63  51  65  W7      29.98S
#WASCO 5NE      N/A         62  54  75  N15     29.94R
$$

ORZ511-171310-
CENTRAL OREGON

CITY            SKY/WX      TMP DP  RH  WIND    PRES   REMARKS
BEND AIRPORT    CLEAR       54  45  71  SW5     30.16R
MADRAS AIRPORT  CLEAR       52  45  77  SE3     30.13S
PRINEVILLE AP   CLEAR       45  39  79  CALM    30.15S
REDMOND AIRPORT CLEAR       51  40  66  SE6     30.13S
6HR MIN TEMP:   49; 6HR MAX TEMP:   65;

#ASHWOOD SCHOOL N/A         56  45  66  SE5     30.07S
#BEND 1SW       N/A         55  44  66  SW1     N/A
#BEND-AWBREY    N/A         58  46  64  S6      29.97S
#BEND-KIM LN    N/A         47  38  71  CALM    29.93S
#CULVER         N/A         53  46  77  CALM    29.92R
#CULVER 8W      N/A         52  43  71  CALM    30.10S
#LAKE BILLY CHINN/A         57  N/A N/A CALM    30.06F
#MADRAS 4S      N/A         56  13  18  S3      N/A
#POWELL BUTTE   N/A         62  40  44  W3      30.08S
#PRINEVILLE     N/A         55  45  69  E7      30.09R
#PRINEVILLE 3N  N/A         50  46  86  S2      30.00S
#WARM SPRINGS   N/A         54  46  74  CALM    29.90R

$$


ORZ509-171310-
EAST SLOPES OF OREGON CASCADES

CITY            SKY/WX      TMP DP  RH  WIND    PRES   REMARKS
SISTERS AWOS    N/A         57  39  51  CALM    30.09S
#CAMP SHERMAN   N/A         56  45  66  CALM    30.04R
#LA PINE 4NW    N/A         45  40  82  CALM    30.06F
#LAVA BUTTE DOT N/A         52  42  69  SE2     N/A
#SISTERS ODOT   N/A         60  38  44  CALM    N/A
#SISTERS 3N     N/A         59  39  47  CALM    30.11S
#SUNRIVER       N/A         45  40  82  CALM    30.20F
#TUMALO 3W      N/A         57  36  45  SW2     29.85S
#WANOGA BUTTE D N/A         59  30  33  W3      N/A

$$

ORZ044-171310-
LOWER COLUMBIA BASIN...OREGON

CITY            SKY/WX      TMP DP  RH  WIND    PRES   REMARKS
HERMISTON       CLEAR       67  56  68  SW9     30.00R
6HR MIN TEMP:   67; 6HR MAX TEMP:   75;

#BOARDMAN SCHOOLN/A         66  56  70  S3      29.97S
#ECHO 8SW       N/A         66  52  61  W7      30.01S
#I-84 EX 198 DOTN/A         67  51  56  E12     N/A
#IONE SCHOOL    N/A         66  47  50  CALM    29.98S
#UMATILLA       N/A         65  54  68  CALM    29.90R
$$

ORZ507-171310-
NORTHERN FOOTHILLS OF THE BLUES

CITY            SKY/WX      TMP DP  RH  WIND    PRES   REMARKS
PENDLETON AIRPT CLEAR       66  50  56  SW8     30.04R
6HR MIN TEMP:   65; 6HR MAX TEMP:   74;

#ADAMS 3WNW     N/A         60  49  67  CALM    29.98R
#ATHENA         N/A         61  50  67  CALM    30.00R
#CAYUSE         N/A         63  50  62  E2      29.97R
#HELIX SCHOOL   N/A         59  50  72  N2      29.97R
#HELIX 3N       N/A         59  50  72  S5      30.02R
#HOLDMAN 5SE    N/A         62  51  67  CALM    30.02R
#HOLDMAN 6E     N/A         63  53  70  S7      29.77R
#M-F GROVE ELEM N/A         66  48  52  CALM    29.99S
#M-FREEWATER 5SEN/A         61  51  70  CALM    30.03R
#PENDLETON DNTN N/A         64  45  50  E2      30.01S
#PDT AQUATIC CTRN/A         65  47  52  CALM    30.02S
#PDT SUNRIDGE   N/A         62  48  60  SE1     30.04R
#PENDLETON 7NW  N/A         66  52  61  W1      29.52F
#PILOT ROCK 1S  N/A         57  41  55  SE2     30.06R
#PILOT ROCK     N/A         58  42  55  CALM    29.97S
#TUTUILLA       N/A         57  48  72  CALM    30.09S
#UMAPINE 2E     N/A         68  55  63  CALM    29.98R
#WESTON SCHOOL  N/A         62  48  60  NW3     29.98R

$$

ORZ508-171310-
SOUTHERN FOOTHILLS OF THE BLUES

CITY            SKY/WX      TMP DP  RH  WIND    PRES   REMARKS
LEXINGTON       CLEAR       63  48  58  S6      30.08S
#AJAX           N/A         60  45  58  S7      30.21R
#CONDON 5W      N/A         58  46  64  S7      30.09R
#HEPPNER EOC    N/A         60  47  62  S1      29.91S
#HEPPNER 4NE    N/A         61  47  60  NW9     29.95S
#MIKKALO        N/A         58  45  62  SE5     30.16S
#OLEX 4N        N/A         64  55  73  SW15    30.01R
#RUGGS 5NE      N/A         56  46  69  SW2     30.27S
#RUGGS 2SW      N/A         58  47  67  S8      29.98R

$$

ORZ502-503-171310-
BLUE MOUNTAINS

CITY            SKY/WX      TMP DP  RH  WIND    PRES   REMARKS
MEACHAM         CLEAR       46  40  79  CALM    30.13S
6HR MIN TEMP:   46; 6HR MAX TEMP:   64;

#BATTLE MTN DOT N/A         54  41  61  CALM    N/A
#GRANITE        N/A         38  30  73  CALM    29.85S
#HEPPNER 15SE   N/A         57  43  59  W1      29.89S
#LADD CYN SMT   N/A         56  48  74  W6      N/A
#LADD CREEK ODOTN/A         55  48  77  S1      N/A
#LONG CREEK HS  N/A         51  43  74  CALM    N/A
#N POWDER DOT   N/A         59  50  72  NE8     N/A
#PIKES PEAK     N/A         60  49  67  N15     27.99S
#SUMMERVILLE 5NWN/A         62  46  56  N8      30.06R
#TOLLGATE       N/A         49  45  86  CALM    30.00S
#TROY SCHOOL    N/A         58  47  67  CALM    29.82R
#UKIAH          N/A         45  42  89  CALM    29.93R
#WESTON 4E      N/A         58  48  69  SE1     29.92R
$$

ORZ505-171310-
JOHN DAY BASIN

CITY            SKY/WX      TMP DP  RH  WIND    PRES   REMARKS
JOHN DAY        CLEAR       58  46  64  CALM    30.14S
#JOHN DAY KJDY  N/A         52  N/A N/A CALM    30.12R
#ANTELOPE 9ESE  N/A         61  47  60  CALM    N/A
#DAYVILLE SCHOOLN/A         57  44  62  CALM    30.07R
#MITCHELL       N/A         54  45  71  CALM    30.29R
#MONUMENT HS    N/A         53  45  74  CALM    30.04R
#MT. VERNON 5SE N/A         54  44  69  CALM    30.10S
#SPRAY SCHOOL   N/A         56  N/A N/A CALM    N/A
$$

ORZ506-171310-
OCHOCO AND JOHN DAY HIGHLANDS

CITY            SKY/WX      TMP DP  RH  WIND    PRES   REMARKS
#HORSE RIDGE DO N/A         38  31  76  CALM    N/A
#PAULINA ODOT   N/A         50  41  71  NE1     N/A
#PINE MTN OBS   N/A         55  37  51  NW7     N/A
#SENECA         N/A         46  N/A N/A CALM    N/A
#SENECA 9NW     N/A         44  39  82  CALM    29.96S
$$

ORZ049-171310-
GRANDE RONDE VALLEY

CITY            SKY/WX      TMP DP  RH  WIND    PRES   REMARKS
#COVE           N/A         57  51  80  CALM    30.11S
#COVE SCHOOL    N/A         58  49  72  CALM    30.10S
#COVE 6NW       N/A         58  47  67  CALM    29.98S
#ELGIN 3N       N/A         52  42  69  CALM    30.05R
#ELGIN 1E       N/A         55  43  64  CALM    N/A
#IMBLER SCHOOL  N/A         57  47  69  CALM    30.04R
#ISLAND CITY 4N N/A         55  52  90  CALM    30.14S
#LA GRANDE-LEFFEN/A         56  46  69  W6      27.11R
#UNION 1S       N/A         53  47  80  CALM    29.98R
$$

ORZ050-171310-
WALLOWA COUNTY

CITY            SKY/WX      TMP DP  RH  WIND    PRES   REMARKS
#ENTERPRISE HS  N/A         47  42  83  CALM    29.87S
#JOSEPH         N/A         51  45  80  CALM    30.00R
#JOSEPH 3N      N/A         45  38  76  CALM    30.13R
#JOSEPH 3W      N/A         51  46  83  CALM    29.97R
#LOSTINE        N/A         49  42  77  CALM    29.79R
#LOSTINE 3SE    N/A         47  40  76  SW1     30.15S
#MT HOWARD 8000 N/A         50  36  58  CALM    30.30S
#PROMISE 1S     N/A         59  48  67  SW7     29.99R
#WALLOWA LAKE   N/A         50  42  74  CALM    30.17R
#WALLOWA SCHOOL N/A         47  42  83  CALM    30.05S



$$



USA.gov is the U.S. government's official web portal to all federal, state and local government web resources and services.